SCP
0 0 0 0 0 0 0 0 0 0 0 -0 0 0 0 0 0 0 0 0 0 0 0 0 0 0 0 0 -0 0 0 0 0 0 0 0 0 0 0 0 0 0 0 0 0 0 0 0 0
0 0 0 0 0 0 0 0 0 0 0 0 0 0 0 0 0 0 0 0 0 0 0 0 0 0 0 0 0 0 0 0 0 0 0 0 0 0 0 0 0 0 0 0 0 0 1 0 0
0 0 0 0 0 0 0 0 0 0 0 0 0 0 0 0 0 0 0 0 0 0 0 0 0 0 0 0 0 0 0 0 0 0 0 0 0 0 0 0 0 0 0 0 0 0 0 0 0
0 0 0 0 0 0 0 0 0 0 0 0 0 0 0 0 0 0 0 0 0 0 0 0 0 0 0 0 0 0 0 0 0 0 0 0 0 0 0 0 0 0 0 0 0 0 0 0 0
0 0 0 0 0 0 0 0 0 0 0 0 0 0 0 0 0 0 0 0 0 0 0 0 0 0 0 0 0 0 0 0 0 0 0 0 0 0 0 0 0 0 0 0 0 0 0 0 0
0 0 0 0 0 0 0 0 0 0 0 0 0 0 0 0 0 0 0 0 0 0 0 0 0 0 0 0 0 0 0 0 0 0 0 0 0 0 0 0 0 0 0 0 0 0 0 0 0
0 0 0 0 0 0 0 0 0 0 0 0 0 0 0 0 0 0 0 0 0 0 0 0 0 0 0 0 0 0 0 0 0 0 0 0 0 0 0 0 0 0 0 0 0 0 0 0 0
0 0 0 0 0 0 0 0 0 0 0 0 0 0 0 0 0 0 0 0 0 0 0 0 0 0 0 0 0 0 0 0 0 0 0 0 0 0 0 0 0 0 0 0 0 0 0 0 0
0 0 0 0 0 0 0 0 0 0 0 0 0 0 0 0 0 0 0 0 0 0 0 0 0 0 0 0 0 0 0 0 0 0 0 0 0 0 0 0 0 0 0 0 0 0 0 0 0
0 0 0 0 0 0 0 0 0 0 0 0 0 0 0 0 0 0 0 0 0 0 0 0 0 0 0 0 0 0 0 0 0 0 0 0 0 0 0 0 0 0 0 0 0 0 0 0 0
0 0 0 0 0 0 0 0 0 0 0 0 0 0 0 0 0 0 0 0 0 0 0 0 0 0 0 0 0 0 0 0 0 0 0 0 0 0 0 0 0 0 0 0 0 0 0 0 0
0 0 0 0 0 0 0 0 0 0 0 0 0 0 0 0 0 0 0 0 0 0 0 0 0 0 0 0 0 0 0 0 0 0 0 0 0 0 0 0 0 0 0 0 0 0 0 0 0
0 0 0 0 0 0 0 0 0 0 0 0 0 0 0 0 0 0 0 0 0 0 0 0 0 0 0 0 0 0 0 0 0 0 0 0 0 0 0 0 0 0 0 0 0 0 0 0 0
0 0 0 0 0 0 0 0 0 0 0 0 0 0 0 0 0 0 0 0 0 0 0 0 0 0 0 0 0 0 0 0 0 0 0 0 0 0 0 0 0 0 0 0 0 0 0 0 -0
0 0 0 0 0 0 0 0 0 0 0 0 0 0 0 0 0 -0 0 0 0 0 0 0 0 0 0 0 0 0 0 0 0 0 0 0 0 0 0 0 0 0 0 0 0 0 0 0 0
0 0 0 0 0 0 0 0 0 0 0 0 0 0 0 0 0 0 0 0 0 0 0 0 0 0 0 0 0 0 0 0 0 0 0 0 0 0 0 0 0 0 0 0 -0 0 0 0 0
0 0 0 0 0 0 0 0 0 0 0 0 0 -0 -0 -0 -0 0 0 0 0 0 0 0 0 0 0 0 0 0 0 0 0 0 0 0 0 0 0 0 0 0 0 0 0 0 0 0 0
0 0 0 0 0 0 0 0 0 0 0 0 0 0 -0 -0 -0 0 0 0 0 0 0 0 0 0 0 0 0 0 0 0 0 0 0 0 0 0 0 0 0 0 -0 -0 -0 0 0 0 0
0 0 0 0 0 0 0 0 0 0 0 0 0 -0 0 0 0 0 0 0 0 0 0 0 0 0 0 0 0 0 0 0 0 0 0 0 0 0 0 0 0 -0 0 0 -0 0 0 0 0
0 0 0 0 0 0 0 0 0 0 0 0 0 0 0 0 0 0 0 0 0 0 0 0 0 0 0 0 0 0 0 0 0 0 0 0 0 0 0 0 0 -0 -0 -0 0 0 0 0 0
0 0 0 0 0 0 0 0 0 0 0 0 0 0 0 0 0 0 0 0 0 0 0 0 0 0 0 0 0 0 0 0 0 0 0 0 -0 0 0 0 0 0 -0 -0 -0 -0 -0 -0 0
0 0 0 0 0 0 0 0 0 0 0 0 0 0 0 0 0 0 0 0 0 0 0 0 0 0 0 0 0 0 0 0 0 0 0 0 -0 0 0 0 0 0 -0 -0 -0 -0 -0 -0 0
0 0 0 0 0 0 0 0 -0 0 0 0 0 0 0 0 0 0 0 0 0 0 0 0 0 0 0 0 0 0 0 0 0 0 0 0 -0 -0 0 0 0 0 0 -0 -0 -0 -0 -0 -0
0 0 0 0 0 0 0 0 -0 0 0 0 0 0 0 0 0 0 0 0 0 0 0 0 0 0 0 0 0 0 0 0 0 0 0 0 0 -0 -0 0 0 0 0 0 0 -0 0 -0 -0
0 0 0 0 0 0 0 0 0 0 0 0 0 0 0 0 0 0 0 0 0 0 0 0 0 0 0 0 0 0 0 0 0 0 0 0 0 0 -0 0 0 0 0 0 0 0 -0 0 -0
0 0 0 0 0 0 0 0 0 0 0 0 0 0 0 0 0 0 0 0 0 0 0 0 0 0 0 0 0 0 0 0 0 0 0 0 0 0 -0 0 0 0 0 0 -0 0 0 -0 -0
0 0 0 0 0 0 0 0 0 0 0 0 0 0 0 0 0 0 0 0 0 0 0 0 0 0 0 0 0 0 0 0 0 0 0 0 0 0 -0 0 0 0 0 0 0 0 0 0 0
0 0 0 0 0 0 0 0 0 0 0 0 0 0 0 0 0 0 0 0 0 0 0 0 0 0 0 0 0 0 0 0 0 0 0 0 0 0 0 0 0 0 0 0 0 0 0 0 0
0 0 0 0 0 0 0 0 0 0 0 0 0 0 0 0 0 0 0 0 0 0 0 0 0 0 0 0 0 0 0 0 0 0 0 0 0 0 0 0 0 0 0 0 0 0 0 0 0
0 0 0 0 0 0 0 0 0 0 0 0 0 0 0 0 0 0 0 0 0 0 0 0 0 0 0 0 0 0 0 0 0 0 0 0 0 0 0 0 0 0 0 0 0 0 0 0 0
Wind_Speed_500mb
15 10 8 7 5 7 4 8 4 5 5 4 9 8 8 5 9 7 6 26 30 32 31 31 27 24 20 18 20 18 17 17 18 22 23 25 27 30 34 37 38 38 40 38 38 37 31 33 33
16 16 10 4 7 4 7 6 10 8 1 5 7 4 3 6 10 6 8 26 29 35 29 26 20 16 17 18 18 17 18 20 22 24 29 32 36 38 40 42 44 45 46 45 46 45 38 41 39
18 19 7 7 5 8 7 9 6 3 4 4 1 2 3 4 5 4 8 24 28 35 27 22 18 16 17 18 18 19 19 22 25 30 34 36 38 38 39 39 40 42 44 47 51 54 52 51 45
17 12 8 6 8 9 7 5 2 4 5 6 1 8 8 10 3 7 14 23 25 28 27 22 17 16 17 18 18 18 21 25 29 33 34 35 37 39 40 43 45 46 48 50 52 55 60 58 53
19 8 6 4 7 8 7 13 5 5 4 6 6 5 6 10 15 9 12 24 23 26 27 23 19 17 17 18 17 20 24 27 30 31 33 36 39 42 45 48 51 53 55 57 56 58 60 66 67
6 7 4 6 8 8 8 15 3 6 9 7 7 5 7 9 11 12 16 21 23 21 21 21 18 16 18 18 19 22 25 27 30 31 33 37 41 45 49 53 56 59 60 62 63 63 63 64 66
10 7 6 5 6 8 7 7 6 7 8 10 7 4 5 7 11 14 19 24 25 25 23 21 18 18 18 18 20 22 25 28 29 32 36 41 45 50 53 52 50 49 51 52 52 57 63 66 66
7 6 5 7 7 8 2 6 3 10 8 7 13 8 6 1 9 17 22 27 29 28 28 25 22 20 19 18 19 22 25 26 29 34 38 44 49 48 45 44 44 45 45 32 29 31 34 46 63
11 6 5 7 10 5 4 5 3 5 6 8 13 15 15 15 15 23 29 32 35 34 33 28 25 20 19 19 21 22 24 27 31 36 42 47 45 41 40 39 39 31 31 27 28 29 33 37 42
8 8 17 9 8 4 1 2 7 5 4 10 20 28 32 27 28 31 33 35 35 34 30 27 25 20 20 20 21 21 26 29 34 39 44 44 40 38 37 33 27 27 28 28 33 36 29 25 30
11 9 8 5 9 7 2 6 8 6 10 26 22 15 20 23 29 37 37 38 33 31 29 26 24 22 21 21 21 24 28 32 37 42 43 39 36 36 35 30 28 27 27 27 32 27 19 21 29
6 13 8 2 5 3 5 9 13 24 30 38 36 32 32 30 34 35 36 37 37 36 30 27 27 24 23 22 22 27 30 34 39 42 39 36 35 36 31 26 24 24 24 26 20 22 25 28 25
5 5 9 18 16 15 17 24 18 47 53 51 48 51 52 48 40 35 33 38 39 39 34 31 30 26 24 24 24 29 32 36 40 40 35 34 32 29 21 18 18 18 18 16 21 24 22 15 4
11 8 9 10 17 17 8 10 5 9 10 12 20 20 23 23 23 29 38 37 44 39 38 35 33 28 26 24 25 30 32 36 39 35 31 29 24 23 20 12 9 14 9 14 17 15 16 24 17
8 4 4 12 9 11 13 14 16 38 33 30 23 28 26 20 20 23 31 36 38 38 40 38 32 28 24 24 26 29 33 36 34 29 28 22 22 21 19 10 7 6 10 10 15 15 20 22 14
4 7 4 5 7 3 3 16 10 15 8 16 23 21 28 40 48 48 38 38 38 40 43 38 33 27 24 23 25 27 31 32 28 27 24 22 22 18 11 6 3 15 12 13 13 16 28 23 17
7 7 6 4 2 4 6 12 7 2 33 60 63 62 55 55 53 50 48 44 40 40 43 39 32 28 23 22 23 25 28 26 26 25 21 19 15 8 6 18 20 16 17 13 18 23 25 22 22
9 5 6 4 9 4 6 25 29 48 43 59 71 71 64 56 38 23 29 42 41 38 42 38 32 30 24 20 20 23 24 22 26 20 17 11 6 8 23 21 15 15 19 16 18 20 20 29 26
9 3 4 0 5 4 8 17 30 42 46 46 52 51 37 22 23 26 21 30 37 34 39 39 32 27 20 17 18 20 19 20 22 17 10 4 10 22 23 17 16 21 21 17 13 31 35 34 26
7 4 5 5 5 1 12 35 26 17 14 18 31 37 28 20 15 14 8 23 34 33 39 36 31 23 17 17 17 17 16 18 15 10 4 6 18 23 18 20 19 20 18 16 24 35 30 28 27
4 8 6 7 9 5 12 17 12 8 11 27 43 30 14 19 20 12 5 23 32 34 36 33 28 20 14 16 17 14 13 16 8 5 3 11 22 22 16 18 19 19 19 18 25 22 27 25 23
7 10 10 6 5 5 6 10 12 12 17 12 48 54 38 31 23 10 8 24 33 35 35 31 23 15 14 13 14 13 11 9 4 0 6 16 23 20 10 13 23 15 17 16 21 21 19 26 27
9 10 10 5 8 4 6 5 14 8 9 20 33 60 49 32 29 14 6 22 32 36 35 29 19 12 13 11 13 12 9 5 2 4 9 18 22 19 9 12 18 18 14 16 20 19 24 20 17
16 11 11 8 5 3 4 5 10 9 13 15 33 52 47 36 30 16 7 18 31 35 30 22 15 11 11 12 11 11 9 5 6 7 9 16 20 16 8 5 14 22 19 17 15 22 23 18 15
4 8 3 6 4 8 5 3 11 8 8 15 29 48 49 40 32 21 8 19 26 27 24 18 11 8 8 12 11 11 9 8 11 9 11 13 17 15 10 7 13 19 29 24 21 16 21 17 14
11 7 9 12 6 3 6 11 4 10 20 32 40 47 49 49 39 26 12 15 18 15 13 10 6 7 8 11 11 12 12 10 16 16 14 16 18 18 19 17 17 24 26 25 21 19 19 21 15
11 7 7 13 5 6 6 8 5 9 24 42 45 56 61 55 49 35 20 9 8 10 10 9 8 9 10 12 12 12 14 13 17 20 20 16 18 22 19 15 21 26 29 25 24 23 21 17 17
5 10 7 5 6 7 7 10 6 12 21 25 36 45 53 51 48 40 27 13 1 5 8 11 12 12 12 13 14 14 15 19 18 22 20 19 15 18 18 16 17 15 22 25 24 24 20 20 21
5 4 7 7 8 9 5 8 2 5 8 13 24 37 48 50 47 42 34 23 12 7 8 10 12 15 16 15 16 15 17 20 22 22 24 19 20 18 20 20 22 23 22 24 28 25 25 23 24
2 10 10 8 9 4 4 7 8 12 13 16 24 34 44 46 46 43 38 31 22 16 11 10 11 16 19 20 19 17 17 21 24 26 26 29 26 24 21 22 27 30 30 32 34 34 32 29 27
Wind_Direction_500mb
217 200 179 164 70 66 258 261 275 238 234 196 143 147 192 155 169 210 238 173 179 185 181 181 187 201 212 212 220 234 252 260 262 269 275 279 279 276 273 273 273 269 264 260 258 256 256 262 259
200 179 169 127 98 105 262 249 235 225 327 149 154 159 165 251 224 268 184 178 179 187 188 189 197 210 212 214 224 239 253 263 270 275 279 279 278 277 276 275 273 269 266 262 257 252 249 249 252
183 169 155 102 122 187 206 208 259 292 210 194 228 298 270 219 220 226 192 183 180 184 195 201 207 215 215 220 234 245 255 266 274 276 276 279 282 283 281 279 276 273 270 266 258 252 247 245 246
168 145 81 109 208 250 220 205 151 296 172 215 242 297 266 251 233 214 206 188 182 184 198 202 215 224 223 231 241 251 261 269 276 279 282 286 287 286 285 282 280 278 274 269 264 258 252 247 247
165 125 82 109 249 258 225 267 231 212 166 173 183 257 250 269 240 231 196 197 195 192 197 203 214 223 229 236 247 261 271 276 278 282 287 290 291 290 289 288 285 282 277 273 268 262 255 250 244
133 116 87 208 241 250 258 239 231 219 182 185 210 252 260 268 262 215 193 191 197 203 207 211 221 225 238 247 259 269 275 279 282 288 292 292 292 291 290 289 287 284 280 275 269 265 261 255 250
144 103 208 180 241 288 229 143 202 205 180 223 204 152 253 268 246 208 193 194 202 203 214 223 228 238 244 256 267 274 280 284 290 296 298 299 300 299 299 298 296 293 286 278 274 267 259 257 253
158 93 136 229 211 254 205 169 230 210 243 181 189 214 249 201 230 215 205 202 205 212 216 225 229 241 249 263 270 277 284 291 298 299 303 303 304 306 306 305 303 305 299 293 290 287 279 268 255
153 83 213 233 177 256 31 28 236 241 241 226 217 243 259 274 253 225 217 213 214 218 221 226 229 238 255 268 276 282 288 294 300 307 307 308 308 304 302 302 311 319 319 310 311 301 292 269 264
148 161 208 208 196 184 194 171 294 270 252 249 257 260 265 268 262 246 235 232 227 230 231 234 234 244 258 270 276 284 294 302 308 311 310 310 306 304 303 308 310 314 313 308 308 314 302 295 281
179 199 213 227 225 260 251 270 237 205 255 245 263 286 275 264 254 240 236 236 242 240 237 240 240 251 261 271 276 291 301 307 313 313 313 310 309 307 305 303 309 314 318 318 314 317 314 305 301
180 228 198 247 173 210 242 282 270 228 251 278 282 279 275 266 265 254 247 242 237 236 238 237 241 252 261 271 278 294 303 310 314 314 315 314 312 308 299 296 306 317 320 327 359 0 339 312 298
214 227 197 238 250 268 262 252 258 269 277 277 272 270 271 266 265 258 248 239 236 235 237 237 240 252 260 268 277 292 304 311 316 317 315 314 318 315 314 293 304 321 329 16 15 358 339 341 17
209 220 277 294 274 256 235 263 229 280 280 275 280 271 269 260 255 249 243 240 238 239 236 235 238 244 255 264 276 293 305 313 317 315 315 319 323 328 325 307 305 333 29 35 11 17 46 56 78
161 272 292 232 245 231 211 262 232 275 287 279 273 262 261 259 257 287 273 254 246 243 239 235 235 243 251 258 276 294 307 314 315 315 318 320 316 321 320 326 351 5 90 48 72 80 91 84 78
115 48 238 130 173 238 156 276 272 323 310 299 293 291 285 276 279 283 271 258 242 236 235 231 230 236 243 253 276 295 308 316 314 317 317 320 311 318 319 337 75 109 63 87 104 104 90 96 107
19 199 219 354 193 102 114 280 295 310 313 303 297 295 294 290 288 283 266 250 237 231 228 224 225 231 229 249 277 297 311 315 317 317 320 317 324 340 58 102 115 98 100 98 120 118 108 119 111
187 200 214 257 4 32 244 266 280 292 297 290 292 294 299 302 305 291 267 235 226 221 216 213 214 219 223 249 279 299 312 313 322 321 325 328 7 97 116 112 112 114 119 121 137 133 121 119 121
119 95 55 16 24 313 263 280 282 288 282 281 293 307 318 330 317 306 275 221 209 209 203 203 207 214 224 254 280 301 309 315 321 326 336 28 107 124 120 111 106 107 123 143 150 145 134 133 131
63 36 302 296 19 78 338 296 277 281 277 305 322 329 331 350 345 329 273 207 201 200 192 195 199 206 234 264 284 301 303 319 312 330 17 114 133 132 123 126 121 123 143 157 152 151 142 143 140
192 193 179 216 332 63 331 297 339 300 22 20 32 14 13 2 353 339 226 184 184 185 188 190 194 207 232 267 286 296 302 325 320 344 98 143 146 144 125 131 143 152 163 158 150 166 165 159 144
177 196 165 164 95 236 11 284 310 312 345 35 18 17 11 5 5 358 190 181 174 177 179 185 190 214 243 263 286 288 300 323 318 127 142 151 154 148 134 130 157 162 160 169 161 161 180 173 156
209 125 145 117 113 31 338 87 271 9 3 359 359 360 7 5 6 10 173 176 169 174 178 183 191 220 252 267 283 280 296 290 215 163 146 158 162 157 135 129 151 159 152 166 163 168 186 188 184
155 87 64 57 91 58 279 137 287 19 327 331 347 5 16 14 13 20 131 166 171 173 179 187 200 219 249 272 280 274 288 247 193 163 149 166 173 178 185 200 174 181 162 155 181 186 186 193 202
31 107 12 356 10 214 25 45 254 40 5 7 352 358 21 28 27 29 97 155 173 179 181 192 214 239 254 284 282 268 270 238 209 195 183 178 191 202 217 227 191 171 177 180 199 204 198 200 237
195 182 161 200 197 235 89 227 255 107 44 29 26 19 33 33 33 44 71 152 167 189 204 221 247 268 278 294 284 267 256 243 223 218 207 206 212 225 238 244 234 189 187 195 204 196 216 239 237
186 187 160 105 40 49 222 279 263 46 20 19 19 27 27 34 37 40 80 122 173 194 251 270 290 283 287 297 285 267 257 253 233 230 231 237 228 222 230 234 221 207 200 198 205 210 221 236 245
151 166 82 9 150 233 283 286 234 356 355 4 10 15 25 41 47 51 51 68 315 222 242 278 291 282 286 300 296 279 264 254 249 238 237 239 236 217 215 217 203 204 205 203 208 210 219 231 220
121 185 54 130 157 171 170 248 45 102 14 9 10 16 26 39 44 52 54 45 26 339 288 281 280 280 290 294 293 291 276 264 258 251 242 238 233 229 230 219 221 223 222 218 220 221 220 227 224
64 199 171 145 215 222 143 261 103 97 58 31 28 35 40 42 44 49 50 47 39 25 354 320 292 278 278 275 279 286 283 271 262 255 250 243 241 241 240 233 235 236 231 231 235 233 228 232 229
Wind_Speed_850mb
15 10 8 7 5 7 4 8 4 5 5 4 9 8 8 5 9 7 6 26 30 32 31 31 27 24 20 18 20 18 17 17 18 22 23 25 27 30 34 37 38 38 40 38 38 37 31 33 33
16 16 10 4 7 4 7 6 10 8 1 5 7 4 3 6 10 6 8 26 29 35 29 26 20 16 17 18 18 17 18 20 22 24 29 32 36 38 40 42 44 45 46 45 46 45 38 41 39
18 19 7 7 5 8 7 9 6 3 4 4 1 2 3 4 5 4 8 24 28 35 27 22 18 16 17 18 18 19 19 22 25 30 34 36 38 38 39 39 40 42 44 47 51 54 52 51 45
17 12 8 6 8 9 7 5 2 4 5 6 1 8 8 10 3 7 14 23 25 28 27 22 17 16 17 18 18 18 21 25 29 33 34 35 37 39 40 43 45 46 48 50 52 55 60 58 53
19 8 6 4 7 8 7 13 5 5 4 6 6 5 6 10 15 9 12 24 23 26 27 23 19 17 17 18 17 20 24 27 30 31 33 36 39 42 45 48 51 53 55 57 56 58 60 66 67
6 7 4 6 8 8 8 15 3 6 9 7 7 5 7 9 11 12 16 21 23 21 21 21 18 16 18 18 19 22 25 27 30 31 33 37 41 45 49 53 56 59 60 62 63 63 63 64 66
10 7 6 5 6 8 7 7 6 7 8 10 7 4 5 7 11 14 19 24 25 25 23 21 18 18 18 18 20 22 25 28 29 32 36 41 45 50 53 52 50 49 51 52 52 57 63 66 66
7 6 5 7 7 8 2 6 3 10 8 7 13 8 6 1 9 17 22 27 29 28 28 25 22 20 19 18 19 22 25 26 29 34 38 44 49 48 45 44 44 45 45 32 29 31 34 46 63
11 6 5 7 10 5 4 5 3 5 6 8 13 15 15 15 15 23 29 32 35 34 33 28 25 20 19 19 21 22 24 27 31 36 42 47 45 41 40 39 39 31 31 27 28 29 33 37 42
8 8 17 9 8 4 1 2 7 5 4 10 20 28 32 27 28 31 33 35 35 34 30 27 25 20 20 20 21 21 26 29 34 39 44 44 40 38 37 33 27 27 28 28 33 36 29 25 30
11 9 8 5 9 7 2 6 8 6 10 26 22 15 20 23 29 37 37 38 33 31 29 26 24 22 21 21 21 24 28 32 37 42 43 39 36 36 35 30 28 27 27 27 32 27 19 21 29
6 13 8 2 5 3 5 9 13 24 30 38 36 32 32 30 34 35 36 37 37 36 30 27 27 24 23 22 22 27 30 34 39 42 39 36 35 36 31 26 24 24 24 26 20 22 25 28 25
5 5 9 18 16 15 17 24 18 47 53 51 48 51 52 48 40 35 33 38 39 39 34 31 30 26 24 24 24 29 32 36 40 40 35 34 32 29 21 18 18 18 18 16 21 24 22 15 4
11 8 9 10 17 17 8 10 5 9 10 12 20 20 23 23 23 29 38 37 44 39 38 35 33 28 26 24 25 30 32 36 39 35 31 29 24 23 20 12 9 14 9 14 17 15 16 24 17
8 4 4 12 9 11 13 14 16 38 33 30 23 28 26 20 20 23 31 36 38 38 40 38 32 28 24 24 26 29 33 36 34 29 28 22 22 21 19 10 7 6 10 10 15 15 20 22 14
4 7 4 5 7 3 3 16 10 15 8 16 23 21 28 40 48 48 38 38 38 40 43 38 33 27 24 23 25 27 31 32 28 27 24 22 22 18 11 6 3 15 12 13 13 16 28 23 17
7 7 6 4 2 4 6 12 7 2 33 60 63 62 55 55 53 50 48 44 40 40 43 39 32 28 23 22 23 25 28 26 26 25 21 19 15 8 6 18 20 16 17 13 18 23 25 22 22
9 5 6 4 9 4 6 25 29 48 43 59 71 71 64 56 38 23 29 42 41 38 42 38 32 30 24 20 20 23 24 22 26 20 17 11 6 8 23 21 15 15 19 16 18 20 20 29 26
9 3 4 0 5 4 8 17 30 42 46 46 52 51 37 22 23 26 21 30 37 34 39 39 32 27 20 17 18 20 19 20 22 17 10 4 10 22 23 17 16 21 21 17 13 31 35 34 26
7 4 5 5 5 1 12 35 26 17 14 18 31 37 28 20 15 14 8 23 34 33 39 36 31 23 17 17 17 17 16 18 15 10 4 6 18 23 18 20 19 20 18 16 24 35 30 28 27
4 8 6 7 9 5 12 17 12 8 11 27 43 30 14 19 20 12 5 23 32 34 36 33 28 20 14 16 17 14 13 16 8 5 3 11 22 22 16 18 19 19 19 18 25 22 27 25 23
7 10 10 6 5 5 6 10 12 12 17 12 48 54 38 31 23 10 8 24 33 35 35 31 23 15 14 13 14 13 11 9 4 0 6 16 23 20 10 13 23 15 17 16 21 21 19 26 27
9 10 10 5 8 4 6 5 14 8 9 20 33 60 49 32 29 14 6 22 32 36 35 29 19 12 13 11 13 12 9 5 2 4 9 18 22 19 9 12 18 18 14 16 20 19 24 20 17
16 11 11 8 5 3 4 5 10 9 13 15 33 52 47 36 30 16 7 18 31 35 30 22 15 11 11 12 11 11 9 5 6 7 9 16 20 16 8 5 14 22 19 17 15 22 23 18 15
4 8 3 6 4 8 5 3 11 8 8 15 29 48 49 40 32 21 8 19 26 27 24 18 11 8 8 12 11 11 9 8 11 9 11 13 17 15 10 7 13 19 29 24 21 16 21 17 14
11 7 9 12 6 3 6 11 4 10 20 32 40 47 49 49 39 26 12 15 18 15 13 10 6 7 8 11 11 12 12 10 16 16 14 16 18 18 19 17 17 24 26 25 21 19 19 21 15
11 7 7 13 5 6 6 8 5 9 24 42 45 56 61 55 49 35 20 9 8 10 10 9 8 9 10 12 12 12 14 13 17 20 20 16 18 22 19 15 21 26 29 25 24 23 21 17 17
5 10 7 5 6 7 7 10 6 12 21 25 36 45 53 51 48 40 27 13 1 5 8 11 12 12 12 13 14 14 15 19 18 22 20 19 15 18 18 16 17 15 22 25 24 24 20 20 21
5 4 7 7 8 9 5 8 2 5 8 13 24 37 48 50 47 42 34 23 12 7 8 10 12 15 16 15 16 15 17 20 22 22 24 19 20 18 20 20 22 23 22 24 28 25 25 23 24
2 10 10 8 9 4 4 7 8 12 13 16 24 34 44 46 46 43 38 31 22 16 11 10 11 16 19 20 19 17 17 21 24 26 26 29 26 24 21 22 27 30 30 32 34 34 32 29 27
Wind_Direction_850mb
217 200 179 164 70 66 258 261 275 238 234 196 143 147 192 155 169 210 238 173 179 185 181 181 187 201 212 212 220 234 252 260 262 269 275 279 279 276 273 273 273 269 264 260 258 256 256 262 259
200 179 169 127 98 105 262 249 235 225 327 149 154 159 165 251 224 268 184 178 179 187 188 189 197 210 212 214 224 239 253 263 270 275 279 279 278 277 276 275 273 269 266 262 257 252 249 249 252
183 169 155 102 122 187 206 208 259 292 210 194 228 298 270 219 220 226 192 183 180 184 195 201 207 215 215 220 234 245 255 266 274 276 276 279 282 283 281 279 276 273 270 266 258 252 247 245 246
168 145 81 109 208 250 220 205 151 296 172 215 242 297 266 251 233 214 206 188 182 184 198 202 215 224 223 231 241 251 261 269 276 279 282 286 287 286 285 282 280 278 274 269 264 258 252 247 247
165 125 82 109 249 258 225 267 231 212 166 173 183 257 250 269 240 231 196 197 195 192 197 203 214 223 229 236 247 261 271 276 278 282 287 290 291 290 289 288 285 282 277 273 268 262 255 250 244
133 116 87 208 241 250 258 239 231 219 182 185 210 252 260 268 262 215 193 191 197 203 207 211 221 225 238 247 259 269 275 279 282 288 292 292 292 291 290 289 287 284 280 275 269 265 261 255 250
144 103 208 180 241 288 229 143 202 205 180 223 204 152 253 268 246 208 193 194 202 203 214 223 228 238 244 256 267 274 280 284 290 296 298 299 300 299 299 298 296 293 286 278 274 267 259 257 253
158 93 136 229 211 254 205 169 230 210 243 181 189 214 249 201 230 215 205 202 205 212 216 225 229 241 249 263 270 277 284 291 298 299 303 303 304 306 306 305 303 305 299 293 290 287 279 268 255
153 83 213 233 177 256 31 28 236 241 241 226 217 243 259 274 253 225 217 213 214 218 221 226 229 238 255 268 276 282 288 294 300 307 307 308 308 304 302 302 311 319 319 310 311 301 292 269 264
148 161 208 208 196 184 194 171 294 270 252 249 257 260 265 268 262 246 235 232 227 230 231 234 234 244 258 270 276 284 294 302 308 311 310 310 306 304 303 308 310 314 313 308 308 314 302 295 281
179 199 213 227 225 260 251 270 237 205 255 245 263 286 275 264 254 240 236 236 242 240 237 240 240 251 261 271 276 291 301 307 313 313 313 310 309 307 305 303 309 314 318 318 314 317 314 305 301
180 228 198 247 173 210 242 282 270 228 251 278 282 279 275 266 265 254 247 242 237 236 238 237 241 252 261 271 278 294 303 310 314 314 315 314 312 308 299 296 306 317 320 327 359 0 339 312 298
214 227 197 238 250 268 262 252 258 269 277 277 272 270 271 266 265 258 248 239 236 235 237 237 240 252 260 268 277 292 304 311 316 317 315 314 318 315 314 293 304 321 329 16 15 358 339 341 17
209 220 277 294 274 256 235 263 229 280 280 275 280 271 269 260 255 249 243 240 238 239 236 235 238 244 255 264 276 293 305 313 317 315 315 319 323 328 325 307 305 333 29 35 11 17 46 56 78
161 272 292 232 245 231 211 262 232 275 287 279 273 262 261 259 257 287 273 254 246 243 239 235 235 243 251 258 276 294 307 314 315 315 318 320 316 321 320 326 351 5 90 48 72 80 91 84 78
115 48 238 130 173 238 156 276 272 323 310 299 293 291 285 276 279 283 271 258 242 236 235 231 230 236 243 253 276 295 308 316 314 317 317 320 311 318 319 337 75 109 63 87 104 104 90 96 107
19 199 219 354 193 102 114 280 295 310 313 303 297 295 294 290 288 283 266 250 237 231 228 224 225 231 229 249 277 297 311 315 317 317 320 317 324 340 58 102 115 98 100 98 120 118 108 119 111
187 200 214 257 4 32 244 266 280 292 297 290 292 294 299 302 305 291 267 235 226 221 216 213 214 219 223 249 279 299 312 313 322 321 325 328 7 97 116 112 112 114 119 121 137 133 121 119 121
119 95 55 16 24 313 263 280 282 288 282 281 293 307 318 330 317 306 275 221 209 209 203 203 207 214 224 254 280 301 309 315 321 326 336 28 107 124 120 111 106 107 123 143 150 145 134 133 131
63 36 302 296 19 78 338 296 277 281 277 305 322 329 331 350 345 329 273 207 201 200 192 195 199 206 234 264 284 301 303 319 312 330 17 114 133 132 123 126 121 123 143 157 152 151 142 143 140
192 193 179 216 332 63 331 297 339 300 22 20 32 14 13 2 353 339 226 184 184 185 188 190 194 207 232 267 286 296 302 325 320 344 98 143 146 144 125 131 143 152 163 158 150 166 165 159 144
177 196 165 164 95 236 11 284 310 312 345 35 18 17 11 5 5 358 190 181 174 177 179 185 190 214 243 263 286 288 300 323 318 127 142 151 154 148 134 130 157 162 160 169 161 161 180 173 156
209 125 145 117 113 31 338 87 271 9 3 359 359 360 7 5 6 10 173 176 169 174 178 183 191 220 252 267 283 280 296 290 215 163 146 158 162 157 135 129 151 159 152 166 163 168 186 188 184
155 87 64 57 91 58 279 137 287 19 327 331 347 5 16 14 13 20 131 166 171 173 179 187 200 219 249 272 280 274 288 247 193 163 149 166 173 178 185 200 174 181 162 155 181 186 186 193 202
31 107 12 356 10 214 25 45 254 40 5 7 352 358 21 28 27 29 97 155 173 179 181 192 214 239 254 284 282 268 270 238 209 195 183 178 191 202 217 227 191 171 177 180 199 204 198 200 237
195 182 161 200 197 235 89 227 255 107 44 29 26 19 33 33 33 44 71 152 167 189 204 221 247 268 278 294 284 267 256 243 223 218 207 206 212 225 238 244 234 189 187 195 204 196 216 239 237
186 187 160 105 40 49 222 279 263 46 20 19 19 27 27 34 37 40 80 122 173 194 251 270 290 283 287 297 285 267 257 253 233 230 231 237 228 222 230 234 221 207 200 198 205 210 221 236 245
151 166 82 9 150 233 283 286 234 356 355 4 10 15 25 41 47 51 51 68 315 222 242 278 291 282 286 300 296 279 264 254 249 238 237 239 236 217 215 217 203 204 205 203 208 210 219 231 220
121 185 54 130 157 171 170 248 45 102 14 9 10 16 26 39 44 52 54 45 26 339 288 281 280 280 290 294 293 291 276 264 258 251 242 238 233 229 230 219 221 223 222 218 220 221 220 227 224
64 199 171 145 215 222 143 261 103 97 58 31 28 35 40 42 44 49 50 47 39 25 354 320 292 278 278 275 279 286 283 271 262 255 250 243 241 241 240 233 235 236 231 231 235 233 228 232 229